This is the latest recevied weather packets stored in our database for station/object VE6CWS-7. If no packets are shown the sender has not sent any weather packets the latest 10 day(s).
| Time | Temp. | Humidity | Pressure | Rain* | Wind** | Luminosity | Snow |
|---|---|---|---|---|---|---|---|
| 1778076913 | 2.22° C | 68% | 1016 hPa | 0 mm | - | - | - |
| 1778076014 | 1.11° C | 70% | 1016.2 hPa | 0 mm | - | - | - |
| 1778075106 | 0° C | 76% | 1016.4 hPa | 0 mm | - | - | - |
| 1778074205 | -1.11° C | 78% | 1016.6 hPa | 0 mm | - | - | - |
| 1778073301 | -2.22° C | 79% | 1016.6 hPa | 0 mm | - | - | - |
| 1778072519 | -2.78° C | 79% | 1016.7 hPa | 0 mm | - | - | - |
| 1778071557 | -3.33° C | 77% | 1016.7 hPa | 0 mm | - | - | - |
| 1778070654 | -2.78° C | 75% | 1016.8 hPa | 0 mm | - | - | - |
| 1778069753 | -2.78° C | 74% | 1016.8 hPa | 0 mm | - | - | - |
| 1778068850 | -2.78° C | 74% | 1016.8 hPa | 0 mm | - | - | - |
| 1778067948 | -2.78° C | 74% | 1017.1 hPa | 0 mm | - | - | - |
| 1778067046 | -2.78° C | 73% | 1017.2 hPa | 0 mm | - | - | - |
| 1778066145 | -2.22° C | 74% | 1017.4 hPa | 0 mm | - | - | - |
| 1778065243 | -2.78° C | 73% | 1017.5 hPa | 0 mm | - | - | - |
| 1778064340 | -2.78° C | 72% | 1017.7 hPa | 0 mm | - | - | - |
| 1778063446 | -2.22° C | 70% | 1017.8 hPa | 0 mm | - | - | - |
| 1778062536 | -2.22° C | 68% | 1017.9 hPa | 0 mm | - | - | - |
| 1778061637 | -2.22° C | 69% | 1018.2 hPa | 0 mm | - | - | - |
| 1778060732 | -2.22° C | 69% | 1018.3 hPa | 0 mm | - | - | - |
| 1778059830 | -2.22° C | 69% | 1018.5 hPa | 0 mm | - | - | - |
| 1778058928 | -2.22° C | 69% | 1018.7 hPa | 0 mm | - | - | - |
| 1778058029 | -2.22° C | 65% | 1019 hPa | 0 mm | - | - | - |
| 1778057121 | -1.67° C | 64% | 1019.4 hPa | 0 mm | - | - | - |
| 1778056220 | -1.11° C | 67% | 1019.5 hPa | 0 mm | - | - | - |
| 1778055320 | -1.11° C | 67% | 1019.5 hPa | 0 mm | - | - | - |
* Rain latest hour (hover to see other rain measurements)
** Current wind speed in m/s (hover to see current wind gust speed)